DAL180 KSAN-KLAX

Flight info

Callsign DAL180
Flight time N/A
Altitude 34000
Route PADRZ2 IKAYE RIZIN SPLNT STOKD SERFR SERFR4
Aircraft B739/M-SDE2E3FGHIRWXY/LB1

Departure

Time N/A
Airport San Diego International Airport (KSAN)

Arrival

Time 2026-04-24 23:37
Airport Los Angeles International Airport (KLAX)
Time Latitude Longitude Altitude Speed Heading
2026-04-24 23:24 33.64938 -118.22579 18923 ft 393 kts 18°
2026-04-24 23:24 33.66585 -118.21465 18944 ft 412 kts 32°
2026-04-24 23:24 33.68674 -118.18981 19008 ft 436 kts 51°
2026-04-24 23:24 33.70495 -118.14540 18560 ft 459 kts 73°
2026-04-24 23:25 33.71156 -118.10841 18062 ft 446 kts 79°
2026-04-24 23:25 33.71642 -118.07194 17281 ft 439 kts 81°
2026-04-24 23:25 33.72083 -118.03592 16524 ft 432 kts 81°
2026-04-24 23:25 33.72506 -118.00051 15774 ft 425 kts 81°
2026-04-24 23:26 33.72786 -117.97678 15278 ft 421 kts 81°
2026-04-24 23:26 33.73195 -117.94266 14608 ft 415 kts 79°
2026-04-24 23:26 33.74006 -117.90984 13898 ft 406 kts 65°
2026-04-24 23:26 33.75164 -117.87926 13156 ft 399 kts 62°
2026-04-24 23:27 33.76373 -117.84951 12390 ft 394 kts 62°
2026-04-24 23:27 33.77596 -117.82019 11638 ft 388 kts 61°
2026-04-24 23:27 33.79050 -117.79341 10877 ft 379 kts 44°
2026-04-24 23:27 33.81099 -117.77446 10177 ft 368 kts 24°
2026-04-24 23:28 33.83502 -117.76562 9416 ft 357 kts
2026-04-24 23:28 33.85906 -117.76811 8897 ft 339 kts 340°
2026-04-24 23:28 33.87945 -117.78068 8370 ft 324 kts 317°
2026-04-24 23:28 33.89336 -117.80103 7899 ft 311 kts 295°
2026-04-24 23:29 33.89888 -117.82537 7412 ft 302 kts 272°
2026-04-24 23:29 33.90051 -117.85021 6983 ft 294 kts 284°
2026-04-24 23:29 33.90647 -117.87284 6940 ft 273 kts 287°
2026-04-24 23:29 33.91174 -117.89399 6902 ft 254 kts 285°
2026-04-24 23:30 33.91644 -117.91361 6885 ft 235 kts 285°
2026-04-24 23:30 33.92076 -117.93178 6882 ft 214 kts 285°
2026-04-24 23:30 33.92467 -117.94822 6835 ft 195 kts 285°
2026-04-24 23:30 33.92829 -117.96343 6568 ft 187 kts 285°
2026-04-24 23:31 33.93205 -117.97935 6088 ft 213 kts 285°
2026-04-24 23:31 33.93632 -117.99769 5909 ft 234 kts 285°
2026-04-24 23:31 33.94073 -118.01671 6205 ft 239 kts 285°
2026-04-24 23:31 33.94531 -118.03651 5974 ft 258 kts 285°
2026-04-24 23:32 33.95016 -118.05744 5388 ft 273 kts 285°
2026-04-24 23:32 33.95535 -118.07981 4802 ft 282 kts 285°
2026-04-24 23:32 33.96069 -118.10285 4208 ft 289 kts 285°
2026-04-24 23:32 33.96623 -118.12644 3725 ft 292 kts 285°
2026-04-24 23:33 33.96936 -118.14998 3590 ft 282 kts 264°
2026-04-24 23:33 33.96520 -118.17301 3360 ft 278 kts 255°
2026-04-24 23:33 33.96014 -118.19548 3294 ft 278 kts 253°
2026-04-24 23:33 33.95436 -118.21734 3462 ft 264 kts 250°
2026-04-24 23:34 33.94828 -118.23716 3454 ft 244 kts 251°
2026-04-24 23:34 33.94551 -118.25704 2967 ft 240 kts 268°
2026-04-24 23:34 33.94571 -118.27645 2536 ft 230 kts 269°
2026-04-24 23:34 33.94565 -118.29577 1767 ft 230 kts 266°
2026-04-24 23:35 33.94431 -118.31473 1169 ft 219 kts 262°
2026-04-24 23:35 33.94228 -118.33198 691 ft 200 kts 261°
2026-04-24 23:35 33.94049 -118.34729 573 ft 167 kts 263°
2026-04-24 23:35 33.93936 -118.36033 380 ft 145 kts 265°
2026-04-24 23:36 33.93849 -118.37131 287 ft 129 kts 263°
2026-04-24 23:36 33.93749 -118.38177 118 ft 122 kts 262°
2026-04-24 23:36 33.93640 -118.39186 108 ft 112 kts 264°
2026-04-24 23:36 33.93564 -118.39967 110 ft 73 kts 261°
2026-04-24 23:37 33.93537 -118.40391 109 ft 31 kts 279°
2026-04-24 23:37 33.93550 -118.40488 111 ft 0 kts 280°
2026-04-24 23:37 33.93555 -118.40514 109 ft 13 kts 283°
2026-04-24 23:38 33.93592 -118.40641 105 ft 17 kts 289°
2026-04-24 23:38 33.93594 -118.40783 104 ft 17 kts 268°
2026-04-24 23:38 33.93597 -118.40814 104 ft 0 kts 284°
2026-04-24 23:39 33.93606 -118.40850 105 ft 11 kts 291°
2026-04-24 23:40 33.93697 -118.40914 106 ft 18 kts 358°
2026-04-24 23:40 33.93805 -118.40986 99 ft 20 kts 308°
2026-04-24 23:40 33.93847 -118.41136 96 ft 20 kts 265°
2026-04-24 23:40 33.93829 -118.41296 97 ft 19 kts 263°
2026-04-24 23:41 33.93833 -118.41446 98 ft 18 kts 315°
2026-04-24 23:41 33.93948 -118.41458 96 ft 18 kts 43°
2026-04-24 23:41 33.93971 -118.41372 95 ft 0 kts 82°
2026-04-24 23:41 33.93972 -118.41365 94 ft 0 kts 83°
2026-04-24 23:42 33.93972 -118.41364 94 ft 0 kts 83°